,,PA_Meas_PMT16A,,PR_Meas_QMR101_102,,RH_Meas_QMH101,,SR_Meas_QMS101,,TA_Meas_QMH101,,GenWind,,GenWind,
time,status,PA,status,PR,status,RH,status,SR,status,TA,status,DirAvg,status,SpdAvg,
2012-01-25, 00:00:05,VALID,916.648,VALID,0,VALID,91.9841,VALID,0,VALID,19.0593,VALID,127,VALID,1.44922,
2012-01-25, 00:01:05,VALID,916.628,VALID,0,VALID,91.8012,VALID,0,VALID,19.0384,VALID,127,VALID,1.31289,
2012-01-25, 00:02:05,VALID,916.657,VALID,0,VALID,91.5953,VALID,0,VALID,19.0788,VALID,127,VALID,1.30547,
2012-01-25, 00:03:05,VALID,916.649,VALID,0,VALID,91.4276,VALID,0,VALID,19.0579,VALID,127,VALID,1.16914,
2012-01-25, 00:04:05,VALID,916.599,VALID,0,VALID,91.3819,VALID,0,VALID,19.0384,VALID,127,VALID,1.20664,
2012-01-25, 00:05:05,VALID,916.584,VALID,0,VALID,91.3209,VALID,0,VALID,19.0189,VALID,127,VALID,1.37383,
2012-01-25, 00:06:05,VALID,916.57,VALID,0,VALID,91.2599,VALID,0,VALID,19.0189,VALID,127,VALID,1.57734,
2012-01-25, 00:07:05,VALID,916.572,VALID,0,VALID,91.1532,VALID,0,VALID,19.0398,VALID,127,VALID,1.15547,
2012-01-25, 00:08:05,VALID,916.576,VALID,0,VALID,90.9321,VALID,0,VALID,19.0384,VALID,130,VALID,1.50703,
2012-01-25, 00:09:05,VALID,916.558,VALID,0,VALID,90.833,VALID,0,VALID,19.0384,VALID,130,VALID,1.2875,
2012-01-25, 00:10:05,VALID,916.569,VALID,0,VALID,90.7644,VALID,0.107441,VALID,19.0189,VALID,130,VALID,1.36836,
2012-01-25, 00:11:05,VALID,916.555,VALID,0,VALID,90.7415,VALID,0,VALID,19.0203,VALID,130,VALID,1.71172,
2012-01-25, 00:12:05,VALID,916.535,VALID,0,VALID,90.9855,VALID,0,VALID,19.0008,VALID,130,VALID,1.63828,
2012-01-25, 00:13:05,VALID,916.55,VALID,0,VALID,91.1989,VALID,0,VALID,18.9799,VALID,130,VALID,1.46172,
2012-01-25, 00:14:05,VALID,916.554,VALID,0,VALID,91.2218,VALID,0,VALID,18.9604,VALID,130,VALID,1.41484,
2012-01-25, 00:15:05,VALID,916.578,VALID,0,VALID,91.0998,VALID,0,VALID,18.9619,VALID,130,VALID,1.41172,
2012-01-25, 00:16:05,VALID,916.563,VALID,0,VALID,90.8787,VALID,0,VALID,18.9814,VALID,130,VALID,1.23164,
2012-01-25, 00:17:05,VALID,916.56,VALID,0,VALID,90.8864,VALID,0,VALID,19.0008,VALID,130,VALID,1.44687,
2012-01-25, 00:18:05,VALID,916.521,VALID,0,VALID,90.8559,VALID,0,VALID,18.9814,VALID,130,VALID,1.43867,
2012-01-25, 00:19:05,VALID,916.523,VALID,0,VALID,90.9092,VALID,0,VALID,18.9814,VALID,121,VALID,1.23086,
2012-01-25, 00:20:05,VALID,916.504,VALID,0,VALID,91.1303,VALID,0,VALID,18.9604,VALID,121,VALID,1.31523,
2012-01-25, 00:21:05,VALID,916.486,VALID,0,VALID,91.3514,VALID,0,VALID,18.9424,VALID,125,VALID,1.63672,
2012-01-25, 00:22:05,VALID,916.514,VALID,0,VALID,91.3133,VALID,0,VALID,18.9229,VALID,123,VALID,1.4125,
2012-01-25, 00:23:05,VALID,916.537,VALID,0,VALID,91.3361,VALID,0,VALID,18.9229,VALID,123,VALID,1.16602,
2012-01-25, 00:24:05,VALID,916.505,VALID,0,VALID,91.3133,VALID,0,VALID,18.8824,VALID,123,VALID,1.26875,
2012-01-25, 00:25:05,VALID,916.474,VALID,0,VALID,91.2675,VALID,0,VALID,18.8629,VALID,123,VALID,1.24414,
2012-01-25, 00:26:05,VALID,916.491,VALID,0,VALID,91.3209,VALID,0,VALID,18.8449,VALID,123,VALID,1.4668,
2012-01-25, 00:27:05,VALID,916.491,VALID,0,VALID,91.2904,VALID,0,VALID,18.7864,VALID,123,VALID,1.10469,
2012-01-25, 00:28:05,VALID,916.479,VALID,0,VALID,91.359,VALID,0,VALID,18.7864,VALID,123,VALID,1.34492,
2012-01-25, 00:29:05,VALID,916.495,VALID,0,VALID,91.3133,VALID,0,VALID,18.7669,VALID,123,VALID,1.0293,
2012-01-25, 00:30:05,VALID,916.5,VALID,0,VALID,91.3133,VALID,0,VALID,18.7474,VALID,123,VALID,1.08086,
2012-01-25, 00:31:05,VALID,916.446,VALID,0,VALID,91.3743,VALID,0,VALID,18.7474,VALID,123,VALID,1.24375,
2012-01-25, 00:32:05,VALID,916.448,VALID,0,VALID,91.3057,VALID,0,VALID,18.7056,VALID,123,VALID,1.41484,
2012-01-25, 00:33:05,VALID,916.426,VALID,0,VALID,91.2752,VALID,0,VALID,18.7265,VALID,123,VALID,1.35547,
2012-01-25, 00:34:05,VALID,916.454,VALID,0,VALID,91.1151,VALID,0,VALID,18.7864,VALID,123,VALID,1.37031,
2012-01-25, 00:35:05,VALID,916.432,VALID,0,VALID,90.9397,VALID,0,VALID,18.7864,VALID,123,VALID,1.27773,
2012-01-25, 00:36:05,VALID,916.399,VALID,0,VALID,90.8254,VALID,0,VALID,18.7655,VALID,123,VALID,1.04648,
2012-01-25, 00:37:05,VALID,916.421,VALID,0,VALID,90.6882,VALID,0,VALID,18.785,VALID,123,VALID,1.00625,
2012-01-25, 00:38:05,VALID,916.408,VALID,0,VALID,90.6272,VALID,0,VALID,18.7251,VALID,123,VALID,0.737109,
2012-01-25, 00:39:05,VALID,916.397,VALID,0,VALID,90.5509,VALID,0,VALID,18.7474,VALID,123,VALID,0.858984,
2012-01-25, 00:40:05,VALID,916.378,VALID,0,VALID,90.5814,VALID,0,VALID,18.707,VALID,123,VALID,0.727734,
2012-01-25, 00:41:05,VALID,916.406,VALID,0,VALID,90.7034,VALID,0,VALID,18.6875,VALID,123,VALID,0.651172,
2012-01-25, 00:42:05,VALID,916.399,VALID,0,VALID,90.6805,VALID,0,VALID,18.6889,VALID,123,VALID,0.778125,
2012-01-25, 00:43:05,VALID,916.404,VALID,0,VALID,90.6729,VALID,0,VALID,18.629,VALID,123,VALID,0.596875,
2012-01-25, 00:44:05,VALID,916.385,VALID,0,VALID,90.9778,VALID,0,VALID,18.5914,VALID,123,VALID,0.651172,
2012-01-25, 00:45:05,VALID,916.411,VALID,0,VALID,91.359,VALID,0,VALID,18.5525,VALID,123,VALID,0.247656,
2012-01-25, 00:46:05,VALID,916.393,VALID,0,VALID,91.5115,VALID,0,VALID,18.533,VALID,123,VALID,0.3125,
2012-01-25, 00:47:05,VALID,916.36,VALID,0,VALID,91.5344,VALID,0.107441,VALID,18.5121,VALID,123,VALID,0.385938,
2012-01-25, 00:48:05,VALID,916.351,VALID,0,VALID,91.2675,VALID,0,VALID,18.533,VALID,123,VALID,0.628906,
2012-01-25, 00:49:05,VALID,916.293,VALID,0,VALID,91.3819,VALID,0,VALID,18.5344,VALID,123,VALID,0.674219,
2012-01-25, 00:50:05,VALID,916.329,VALID,0,VALID,91.7478,VALID,0,VALID,18.416,VALID,123,VALID,0.672266,
2012-01-25, 00:51:05,VALID,916.312,VALID,0,VALID,92.129,VALID,0,VALID,18.3575,VALID,123,VALID,0.562109,
2012-01-25, 00:52:05,VALID,916.314,VALID,0,VALID,92.3501,VALID,0,VALID,18.3185,VALID,123,VALID,0.597656,
2012-01-25, 00:53:05,VALID,916.298,VALID,0,VALID,92.7693,VALID,0,VALID,18.2392,VALID,123,VALID,0.626172,
2012-01-25, 00:54:05,VALID,916.338,VALID,0,VALID,93.3182,VALID,0,VALID,18.2601,VALID,123,VALID,0.737891,
2012-01-25, 00:55:05,VALID,916.33,VALID,0,VALID,93.5851,VALID,0,VALID,18.2796,VALID,123,VALID,0.679688,
2012-01-25, 00:56:05,VALID,916.364,VALID,0,VALID,93.6155,VALID,0,VALID,18.3185,VALID,123,VALID,0.644922,
2012-01-25, 00:57:05,VALID,916.338,VALID,0,VALID,93.4326,VALID,0,VALID,18.3575,VALID,123,VALID,0.917969,
2012-01-25, 00:58:05,VALID,916.33,VALID,0,VALID,93.1429,VALID,0,VALID,18.377,VALID,123,VALID,0.975,
2012-01-25, 00:59:05,VALID,916.322,VALID,0,VALID,92.9904,VALID,0,VALID,18.416,VALID,123,VALID,1.09961,
2012-01-25, 01:00:05,VALID,916.355,VALID,0,VALID,92.0832,VALID,0,VALID,18.4745,VALID,123,VALID,1.04102,
2012-01-25, 01:01:05,VALID,916.354,VALID,0,VALID,90.9092,VALID,0,VALID,18.572,VALID,123,VALID,0.775781,
2012-01-25, 01:02:05,VALID,916.359,VALID,0,VALID,90.3985,VALID,0,VALID,18.6304,VALID,123,VALID,0.639063,
2012-01-25, 01:03:05,VALID,916.351,VALID,0,VALID,90.2994,VALID,0,VALID,18.6499,VALID,123,VALID,0.514844,
2012-01-25, 01:04:05,VALID,916.282,VALID,0,VALID,89.9563,VALID,0,VALID,18.6499,VALID,123,VALID,1.11055,
2012-01-25, 01:05:05,VALID,916.302,VALID,0,VALID,89.6666,VALID,0,VALID,18.6694,VALID,123,VALID,1.45742,
2012-01-25, 01:06:05,VALID,916.244,VALID,0,VALID,90.0173,VALID,0,VALID,18.7084,VALID,123,VALID,1.28242,
2012-01-25, 01:07:05,VALID,916.299,VALID,0,VALID,90.307,VALID,0,VALID,18.7084,VALID,123,VALID,0.910547,
2012-01-25, 01:08:05,VALID,916.308,VALID,0,VALID,91.0693,VALID,0,VALID,18.6889,VALID,123,VALID,0.7875,
2012-01-25, 01:09:05,VALID,916.294,VALID,0,VALID,91.077,VALID,0,VALID,18.6889,VALID,123,VALID,0.895703,
2012-01-25, 01:10:05,VALID,916.311,VALID,0,VALID,91.0312,VALID,0,VALID,18.6499,VALID,123,VALID,0.970703,
2012-01-25, 01:11:05,VALID,916.3,VALID,0,VALID,91.0922,VALID,0,VALID,18.629,VALID,123,VALID,0.957031,
2012-01-25, 01:12:05,VALID,916.28,VALID,0,VALID,91.3666,VALID,0,VALID,18.6304,VALID,123,VALID,1.13711,
2012-01-25, 01:13:05,VALID,916.268,VALID,0,VALID,91.5572,VALID,0,VALID,18.6109,VALID,123,VALID,1.45352,
2012-01-25, 01:14:05,VALID,916.269,VALID,0,VALID,91.5039,VALID,0,VALID,18.6499,VALID,123,VALID,1.3,
2012-01-25, 01:15:05,VALID,916.268,VALID,0,VALID,91.3057,VALID,0,VALID,18.6499,VALID,123,VALID,1.11563,
2012-01-25, 01:16:05,VALID,916.229,VALID,0,VALID,91.077,VALID,0,VALID,18.6499,VALID,123,VALID,0.811328,
2012-01-25, 01:17:05,VALID,916.204,VALID,0,VALID,91.0617,VALID,0,VALID,18.6304,VALID,123,VALID,0.753906,
2012-01-25, 01:18:05,VALID,916.204,VALID,0,VALID,90.955,VALID,0,VALID,18.5525,VALID,123,VALID,0.723828,
2012-01-25, 01:19:05,VALID,916.223,VALID,0,VALID,91.1761,VALID,0,VALID,18.455,VALID,123,VALID,0.94375,
2012-01-25, 01:20:05,VALID,916.224,VALID,0,VALID,91.2066,VALID,0,VALID,18.3965,VALID,123,VALID,1.19648,
2012-01-25, 01:21:05,VALID,916.212,VALID,0,VALID,90.9626,VALID,0,VALID,18.4174,VALID,123,VALID,1.35156,
2012-01-25, 01:22:05,VALID,916.19,VALID,0,VALID,90.429,VALID,0,VALID,18.416,VALID,123,VALID,1.57773,
2012-01-25, 01:23:05,VALID,916.193,VALID,0,VALID,90.1088,VALID,0,VALID,18.4745,VALID,123,VALID,1.68828,
2012-01-25, 01:24:05,VALID,916.178,VALID,0,VALID,90.0859,VALID,0,VALID,18.494,VALID,123,VALID,1.67656,
2012-01-25, 01:25:05,VALID,916.219,VALID,0,VALID,89.8267,VALID,0,VALID,18.5135,VALID,123,VALID,1.5668,
2012-01-25, 01:26:05,VALID,916.22,VALID,0,VALID,89.3464,VALID,0,VALID,18.533,VALID,123,VALID,1.56406,
2012-01-25, 01:27:05,VALID,916.228,VALID,0,VALID,89.2245,VALID,0,VALID,18.5135,VALID,123,VALID,1.39492,
2012-01-25, 01:28:05,VALID,916.188,VALID,0,VALID,89.5218,VALID,0,VALID,18.494,VALID,123,VALID,0.828125,
2012-01-25, 01:29:05,VALID,916.219,VALID,0,VALID,89.8725,VALID,0,VALID,18.3756,VALID,123,VALID,0.659375,
2012-01-25, 01:30:05,VALID,916.21,VALID,0,VALID,90.0707,VALID,0,VALID,18.338,VALID,123,VALID,0.687891,
2012-01-25, 01:31:05,VALID,916.191,VALID,0,VALID,89.7429,VALID,0,VALID,18.3185,VALID,123,VALID,1.25508,
2012-01-25, 01:32:05,VALID,916.177,VALID,0,VALID,89.5218,VALID,0,VALID,18.338,VALID,123,VALID,1.22187,
2012-01-25, 01:33:05,VALID,916.204,VALID,0,VALID,89.72,VALID,0,VALID,18.338,VALID,123,VALID,0.766797,
2012-01-25, 01:34:05,VALID,916.169,VALID,0,VALID,90.0173,VALID,0.107441,VALID,18.2796,VALID,123,VALID,0.722266,
2012-01-25, 01:35:05,VALID,916.166,VALID,0,VALID,89.9716,VALID,0,VALID,18.2601,VALID,123,VALID,0.846875,
2012-01-25, 01:36:05,VALID,916.135,VALID,0,VALID,89.6895,VALID,0,VALID,18.2601,VALID,123,VALID,1.04531,
2012-01-25, 01:37:05,VALID,916.098,VALID,0,VALID,89.415,VALID,0,VALID,18.299,VALID,123,VALID,0.98125,
2012-01-25, 01:38:05,VALID,916.108,VALID,0,VALID,89.3769,VALID,0,VALID,18.3185,VALID,123,VALID,0.839453,
2012-01-25, 01:39:05,VALID,916.125,VALID,0,VALID,89.6361,VALID,0,VALID,18.299,VALID,123,VALID,0.672266,
2012-01-25, 01:40:05,VALID,916.096,VALID,0,VALID,89.6133,VALID,0,VALID,18.2796,VALID,123,VALID,0.775781,
2012-01-25, 01:41:05,VALID,916.084,VALID,0,VALID,89.7962,VALID,0,VALID,18.2601,VALID,123,VALID,0.393359,
2012-01-25, 01:42:05,VALID,916.076,VALID,0,VALID,90.1012,VALID,0,VALID,18.2211,VALID,123,VALID,0.555078,
2012-01-25, 01:43:05,VALID,916.091,VALID,0,VALID,90.1316,VALID,0,VALID,18.1431,VALID,123,VALID,0.681641,
2012-01-25, 01:44:05,VALID,916.041,VALID,0,VALID,89.0415,VALID,0,VALID,18.1236,VALID,123,VALID,0.891406,
2012-01-25, 01:45:05,VALID,916.067,VALID,0,VALID,87.1661,VALID,0,VALID,18.2601,VALID,123,VALID,1.31953,
2012-01-25, 01:46:05,VALID,916.047,VALID,0,VALID,85.5652,VALID,0,VALID,18.4745,VALID,123,VALID,1.23828,
2012-01-25, 01:47:05,VALID,916.064,VALID,0,VALID,84.902,VALID,0,VALID,18.6499,VALID,123,VALID,1.22656,
2012-01-25, 01:48:05,VALID,916.057,VALID,0,VALID,84.6199,VALID,0,VALID,18.7669,VALID,123,VALID,1.24023,
2012-01-25, 01:49:05,VALID,916.025,VALID,0,VALID,83.9796,VALID,0,VALID,18.8254,VALID,123,VALID,1.29414,
2012-01-25, 01:50:05,VALID,915.989,VALID,0,VALID,84.1701,VALID,0,VALID,18.8644,VALID,123,VALID,1.19492,
2012-01-25, 01:51:05,VALID,915.947,VALID,0,VALID,84.7038,VALID,0,VALID,18.8449,VALID,123,VALID,0.935547,
2012-01-25, 01:52:05,VALID,915.936,VALID,0,VALID,84.8562,VALID,0,VALID,18.7864,VALID,123,VALID,0.658594,
2012-01-25, 01:53:05,VALID,915.941,VALID,0,VALID,85.2679,VALID,0,VALID,18.7279,VALID,123,VALID,0.577734,
2012-01-25, 01:54:05,VALID,915.941,VALID,0,VALID,85.6033,VALID,0,VALID,18.7084,VALID,123,VALID,0.593359,
2012-01-25, 01:55:05,VALID,915.936,VALID,0,VALID,85.0545,VALID,0,VALID,18.7098,VALID,123,VALID,0.776953,
2012-01-25, 01:56:04,VALID,915.914,VALID,0,VALID,85.1536,VALID,0,VALID,18.7293,VALID,123,VALID,0.771094,
2012-01-25, 01:57:04,VALID,915.892,VALID,0,VALID,85.245,VALID,0,VALID,18.7084,VALID,123,VALID,0.553906,
2012-01-25, 01:58:04,VALID,915.872,VALID,0,VALID,85.2145,VALID,0,VALID,18.6889,VALID,123,VALID,0.7,
2012-01-25, 01:59:04,VALID,915.851,VALID,0,VALID,85.4432,VALID,0.107441,VALID,18.7293,VALID,123,VALID,0.970703,
2012-01-25, 02:00:04,VALID,915.845,VALID,0,VALID,84.9477,VALID,0,VALID,18.7293,VALID,123,VALID,0.952734,
2012-01-25, 02:01:04,VALID,915.872,VALID,0,VALID,85.6415,VALID,0,VALID,18.7084,VALID,123,VALID,0.875,
2012-01-25, 02:02:04,VALID,915.83,VALID,0,VALID,85.2222,VALID,0,VALID,18.7084,VALID,123,VALID,0.645703,
2012-01-25, 02:03:04,VALID,915.81,VALID,0,VALID,85.3289,VALID,0,VALID,18.6694,VALID,123,VALID,0.756641,
2012-01-25, 02:04:04,VALID,915.825,VALID,0,VALID,86.5791,VALID,0,VALID,18.6499,VALID,123,VALID,1.01602,
2012-01-25, 02:05:04,VALID,915.79,VALID,0,VALID,86.4419,VALID,0,VALID,18.5914,VALID,123,VALID,1.1,
2012-01-25, 02:06:04,VALID,915.754,VALID,0,VALID,85.7253,VALID,0,VALID,18.6124,VALID,123,VALID,0.91875,
2012-01-25, 02:07:04,VALID,915.761,VALID,0,VALID,86.3504,VALID,0,VALID,18.6109,VALID,123,VALID,0.84375,
2012-01-25, 02:08:04,VALID,915.763,VALID,0,VALID,86.48,VALID,0,VALID,18.5929,VALID,123,VALID,0.341797,
2012-01-25, 02:09:04,VALID,915.751,VALID,0,VALID,86.2056,VALID,0,VALID,18.572,VALID,123,VALID,0.69375,
2012-01-25, 02:10:04,VALID,915.766,VALID,0,VALID,85.7482,VALID,0,VALID,18.572,VALID,123,VALID,0.541016,
2012-01-25, 02:11:04,VALID,915.751,VALID,0,VALID,86.2361,VALID,0,VALID,18.5929,VALID,123,VALID,0.340234,
2012-01-25, 02:12:04,VALID,915.74,VALID,0,VALID,86.1522,VALID,0,VALID,18.5525,VALID,123,VALID,0.509766,
2012-01-25, 02:13:04,VALID,915.764,VALID,0,VALID,85.9007,VALID,0,VALID,18.494,VALID,123,VALID,0.543359,
2012-01-25, 02:14:04,VALID,915.75,VALID,0,VALID,85.4585,VALID,0,VALID,18.4355,VALID,123,VALID,0.303125,
2012-01-25, 02:15:04,VALID,915.756,VALID,0,VALID,85.8092,VALID,0,VALID,18.4564,VALID,123,VALID,0.547266,
2012-01-25, 02:16:04,VALID,915.758,VALID,0,VALID,87.1433,VALID,0,VALID,18.3965,VALID,123,VALID,0.284766,
2012-01-25, 02:17:04,VALID,915.736,VALID,0,VALID,88.302,VALID,0,VALID,18.2601,VALID,123,VALID,0.476563,
2012-01-25, 02:18:04,VALID,915.737,VALID,0,VALID,88.8814,VALID,0,VALID,18.0651,VALID,123,VALID,0.636719,
2012-01-25, 02:19:04,VALID,915.76,VALID,0,VALID,88.3859,VALID,0,VALID,17.9496,VALID,123,VALID,0.743359,
2012-01-25, 02:20:04,VALID,915.755,VALID,0,VALID,88.5002,VALID,0,VALID,17.9677,VALID,123,VALID,0.159375,
2012-01-25, 02:21:04,VALID,915.778,VALID,0,VALID,88.1496,VALID,0,VALID,17.9677,VALID,123,VALID,0.208203,
2012-01-25, 02:22:04,VALID,915.746,VALID,0,VALID,87.1814,VALID,0,VALID,18.0262,VALID,123,VALID,0.750391,
2012-01-25, 02:23:04,VALID,915.743,VALID,0,VALID,86.663,VALID,0,VALID,18.1431,VALID,123,VALID,0.987891,
2012-01-25, 02:24:04,VALID,915.759,VALID,0,VALID,85.4051,VALID,0,VALID,18.2615,VALID,123,VALID,0.798047,
2012-01-25, 02:25:04,VALID,915.737,VALID,0,VALID,85.8473,VALID,0,VALID,18.3185,VALID,123,VALID,0.526172,
2012-01-25, 02:26:04,VALID,915.751,VALID,0,VALID,85.1993,VALID,0,VALID,18.3589,VALID,123,VALID,0.619141,
2012-01-25, 02:27:04,VALID,915.706,VALID,0,VALID,85.1841,VALID,0,VALID,18.3575,VALID,123,VALID,0.910156,
2012-01-25, 02:28:04,VALID,915.712,VALID,0,VALID,86.0074,VALID,0,VALID,18.3589,VALID,123,VALID,0.950391,
2012-01-25, 02:29:04,VALID,915.746,VALID,0,VALID,86.198,VALID,0,VALID,18.2796,VALID,123,VALID,1.25703,
2012-01-25, 02:30:04,VALID,915.736,VALID,0,VALID,85.7863,VALID,0,VALID,18.2809,VALID,123,VALID,0.93125,
2012-01-25, 02:31:04,VALID,915.7,VALID,0,VALID,86.3352,VALID,0,VALID,18.2406,VALID,123,VALID,0.778125,
2012-01-25, 02:32:04,VALID,915.709,VALID,0,VALID,86.3733,VALID,0,VALID,18.242,VALID,123,VALID,0.896484,
2012-01-25, 02:33:04,VALID,915.719,VALID,0,VALID,87.0594,VALID,0,VALID,18.1431,VALID,123,VALID,0.936328,
2012-01-25, 02:34:04,VALID,915.749,VALID,0,VALID,86.8841,VALID,0,VALID,18.086,VALID,123,VALID,0.860937,
2012-01-25, 02:35:04,VALID,915.732,VALID,0,VALID,86.3733,VALID,0,VALID,18.0457,VALID,123,VALID,1.02109,
2012-01-25, 02:36:04,VALID,915.696,VALID,0,VALID,83.8652,VALID,0,VALID,18.1626,VALID,123,VALID,1.50273,
2012-01-25, 02:37:04,VALID,915.725,VALID,0,VALID,84.4674,VALID,0,VALID,18.2392,VALID,123,VALID,0.375391,
2012-01-25, 02:38:04,VALID,915.742,VALID,0,VALID,84.0177,VALID,0,VALID,18.3004,VALID,123,VALID,0.197656,
2012-01-25, 02:39:04,VALID,915.734,VALID,0,VALID,82.9428,VALID,0,VALID,18.299,VALID,123,VALID,1.12109,
2012-01-25, 02:40:04,VALID,915.702,VALID,0,VALID,81.8374,VALID,0,VALID,18.377,VALID,123,VALID,1.24688,
2012-01-25, 02:41:04,VALID,915.729,VALID,0,VALID,83.6746,VALID,0,VALID,18.416,VALID,123,VALID,0.505078,
2012-01-25, 02:42:04,VALID,915.738,VALID,0,VALID,84.7419,VALID,0,VALID,18.3784,VALID,123,VALID,0.975781,
2012-01-25, 02:43:04,VALID,915.707,VALID,0,VALID,85.7406,VALID,0,VALID,18.2601,VALID,123,VALID,1.52813,
2012-01-25, 02:44:04,VALID,915.664,VALID,0,VALID,86.0226,VALID,0,VALID,18.1626,VALID,123,VALID,0.933203,
2012-01-25, 02:45:04,VALID,915.689,VALID,0,VALID,85.8092,VALID,0,VALID,18.1041,VALID,123,VALID,0.444141,
2012-01-25, 02:46:04,VALID,915.708,VALID,0,VALID,85.6872,VALID,0,VALID,18.1041,VALID,123,VALID,0.857813,
2012-01-25, 02:47:04,VALID,915.699,VALID,0,VALID,85.6186,VALID,0,VALID,18.1431,VALID,123,VALID,0.90625,
2012-01-25, 02:48:04,VALID,915.671,VALID,0,VALID,85.8168,VALID,0,VALID,18.1431,VALID,123,VALID,0.958594,
2012-01-25, 02:49:04,VALID,915.63,VALID,0,VALID,85.6338,VALID,0,VALID,18.1041,VALID,123,VALID,1.27031,
2012-01-25, 02:50:04,VALID,915.651,VALID,0,VALID,85.5805,VALID,0,VALID,18.1431,VALID,123,VALID,1.18789,
2012-01-25, 02:51:04,VALID,915.687,VALID,0,VALID,85.9311,VALID,0,VALID,18.1431,VALID,123,VALID,0.40625,
2012-01-25, 02:52:04,VALID,915.663,VALID,0,VALID,86.3199,VALID,0,VALID,18.1236,VALID,123,VALID,1.24453,
2012-01-25, 02:53:04,VALID,915.651,VALID,0,VALID,86.4724,VALID,0,VALID,18.1222,VALID,123,VALID,1.41836,
2012-01-25, 02:54:04,VALID,915.657,VALID,0,VALID,86.7697,VALID,0,VALID,18.1041,VALID,123,VALID,1.41406,
2012-01-25, 02:55:04,VALID,915.658,VALID,0,VALID,86.5868,VALID,0,VALID,18.0846,VALID,123,VALID,1.19844,
2012-01-25, 02:56:04,VALID,915.647,VALID,0,VALID,85.9693,VALID,0,VALID,18.086,VALID,123,VALID,1.13516,
2012-01-25, 02:57:04,VALID,915.64,VALID,0,VALID,86.1751,VALID,0,VALID,18.0651,VALID,123,VALID,1.02734,
2012-01-25, 02:58:04,VALID,915.601,VALID,0,VALID,85.6796,VALID,0,VALID,18.0262,VALID,123,VALID,0.969531,
2012-01-25, 02:59:04,VALID,915.608,VALID,0,VALID,86.1522,VALID,0,VALID,18.0262,VALID,123,VALID,0.744922,
2012-01-25, 03:00:04,VALID,915.57,VALID,0,VALID,86.541,VALID,0,VALID,18.008,VALID,123,VALID,0.911328,
2012-01-25, 03:01:04,VALID,915.578,VALID,0,VALID,84.9782,VALID,0,VALID,17.9872,VALID,123,VALID,1.14844,
2012-01-25, 03:02:04,VALID,915.564,VALID,0,VALID,85.8092,VALID,0,VALID,18.0457,VALID,123,VALID,0.569922,
2012-01-25, 03:03:04,VALID,915.528,VALID,0,VALID,83.4459,VALID,0,VALID,18.047,VALID,123,VALID,0.783594,
2012-01-25, 03:04:04,VALID,915.515,VALID,0,VALID,83.6136,VALID,0,VALID,18.1236,VALID,123,VALID,1.025,
2012-01-25, 03:05:04,VALID,915.524,VALID,0,VALID,84.7343,VALID,0,VALID,18.1626,VALID,123,VALID,0.785937,
2012-01-25, 03:06:04,VALID,915.5,VALID,0,VALID,83.1334,VALID,0,VALID,18.086,VALID,123,VALID,1.10273,
2012-01-25, 03:07:04,VALID,915.514,VALID,0,VALID,81.6849,VALID,0,VALID,18.1236,VALID,123,VALID,1.25625,
2012-01-25, 03:08:04,VALID,915.481,VALID,0,VALID,80.9836,VALID,0,VALID,18.203,VALID,123,VALID,1.15469,
2012-01-25, 03:09:04,VALID,915.496,VALID,0,VALID,80.854,VALID,0,VALID,18.299,VALID,123,VALID,1.25781,
2012-01-25, 03:10:04,VALID,915.487,VALID,0,VALID,80.5948,VALID,0,VALID,18.338,VALID,123,VALID,1.06797,
2012-01-25, 03:11:04,VALID,915.459,VALID,0,VALID,81.8755,VALID,0,VALID,18.3575,VALID,123,VALID,0.887891,
2012-01-25, 03:12:04,VALID,915.42,VALID,0,VALID,81.906,VALID,0,VALID,18.3575,VALID,123,VALID,1.17109,
2012-01-25, 03:13:04,VALID,915.409,VALID,0,VALID,82.028,VALID,0,VALID,18.377,VALID,123,VALID,1.28789,
2012-01-25, 03:14:04,VALID,915.414,VALID,0,VALID,83.1029,VALID,0,VALID,18.3575,VALID,123,VALID,0.778125,
2012-01-25, 03:15:04,VALID,915.434,VALID,0,VALID,84.1396,VALID,0,VALID,18.2796,VALID,123,VALID,0.801172,
2012-01-25, 03:16:04,VALID,915.379,VALID,0,VALID,85.8168,VALID,0,VALID,18.242,VALID,123,VALID,0.955078,
2012-01-25, 03:17:04,VALID,915.39,VALID,0,VALID,86.6249,VALID,0,VALID,18.203,VALID,130,VALID,1.05547,
2012-01-25, 03:18:04,VALID,915.353,VALID,0,VALID,87.6617,VALID,0,VALID,18.164,VALID,134,VALID,0.906641,
2012-01-25, 03:19:04,VALID,915.369,VALID,0,VALID,88.241,VALID,0,VALID,18.0846,VALID,134,VALID,0.904688,
2012-01-25, 03:20:04,VALID,915.339,VALID,0,VALID,88.2944,VALID,0,VALID,18.047,VALID,134,VALID,0.909375,
2012-01-25, 03:21:04,VALID,915.336,VALID,0,VALID,88.3859,VALID,0,VALID,17.9691,VALID,134,VALID,0.754297,
2012-01-25, 03:22:04,VALID,915.364,VALID,0,VALID,88.0581,VALID,0,VALID,17.9106,VALID,134,VALID,0.951953,
2012-01-25, 03:23:04,VALID,915.38,VALID,0,VALID,86.6859,VALID,0,VALID,17.8911,VALID,134,VALID,0.987109,
2012-01-25, 03:24:04,VALID,915.369,VALID,0,VALID,85.7406,VALID,0,VALID,17.9301,VALID,134,VALID,0.764063,
2012-01-25, 03:25:04,VALID,915.354,VALID,0,VALID,84.4141,VALID,0,VALID,17.9677,VALID,134,VALID,0.624219,
2012-01-25, 03:26:04,VALID,915.32,VALID,0,VALID,85.0545,VALID,0,VALID,18.0275,VALID,134,VALID,0.622266,
2012-01-25, 03:27:04,VALID,915.323,VALID,0,VALID,84.2769,VALID,0,VALID,17.9872,VALID,134,VALID,0.869922,
2012-01-25, 03:28:04,VALID,915.33,VALID,0,VALID,82.8437,VALID,0,VALID,17.9886,VALID,134,VALID,0.904688,
2012-01-25, 03:29:04,VALID,915.324,VALID,0,VALID,81.601,VALID,0,VALID,18.0457,VALID,134,VALID,0.935938,
2012-01-25, 03:30:04,VALID,915.283,VALID,0,VALID,80.2365,VALID,0,VALID,18.1835,VALID,134,VALID,0.887891,
2012-01-25, 03:31:04,VALID,915.286,VALID,0,VALID,80.3508,VALID,0,VALID,18.2809,VALID,134,VALID,0.717969,
2012-01-25, 03:32:04,VALID,915.245,VALID,0,VALID,79.1006,VALID,0,VALID,18.3394,VALID,134,VALID,0.748828,
2012-01-25, 03:33:04,VALID,915.218,VALID,0,VALID,80.5795,VALID,0,VALID,18.4564,VALID,134,VALID,0.961719,
2012-01-25, 03:34:04,VALID,915.202,VALID,0,VALID,80.8692,VALID,0,VALID,18.4745,VALID,134,VALID,0.796875,
2012-01-25, 03:35:04,VALID,915.202,VALID,0,VALID,82.2262,VALID,0,VALID,18.4355,VALID,134,VALID,0.877344,
2012-01-25, 03:36:04,VALID,915.194,VALID,0,VALID,83.2172,VALID,0,VALID,18.3575,VALID,134,VALID,0.809766,
2012-01-25, 03:37:04,VALID,915.236,VALID,0,VALID,81.662,VALID,0,VALID,18.338,VALID,134,VALID,1.01953,
2012-01-25, 03:38:04,VALID,915.216,VALID,0,VALID,82.7446,VALID,0,VALID,18.3575,VALID,134,VALID,0.673437,
2012-01-25, 03:39:04,VALID,915.23,VALID,0,VALID,83.5755,VALID,0,VALID,18.3589,VALID,134,VALID,0.848437,
2012-01-25, 03:40:04,VALID,915.223,VALID,0,VALID,83.2553,VALID,0,VALID,18.2796,VALID,134,VALID,0.85625,
2012-01-25, 03:41:04,VALID,915.214,VALID,0,VALID,81.2046,VALID,0,VALID,18.2211,VALID,134,VALID,0.783594,
2012-01-25, 03:42:04,VALID,915.259,VALID,0,VALID,81.1818,VALID,0,VALID,18.242,VALID,134,VALID,0.947266,
2012-01-25, 03:43:04,VALID,915.27,VALID,0,VALID,82.1728,VALID,0,VALID,18.2211,VALID,134,VALID,0.744531,
2012-01-25, 03:44:04,VALID,915.239,VALID,0,VALID,79.9086,VALID,0,VALID,18.2016,VALID,134,VALID,0.776953,
2012-01-25, 03:45:04,VALID,915.287,VALID,0,VALID,79.2607,VALID,0,VALID,18.2225,VALID,134,VALID,0.859766,